Regional Weather Roundup
Issued by NWS

Home | Current Version | Previous Version | Graphics & Text | Print | Product List | Glossary On
Versions: 1 2 3 4 5 6 7 8 9 10 11 12 13 14 15 16 17 18 19 20 21 22 23 24 25 26 27 28 29 30 31 32 33 34 35 36 37 38 39 40 41 42 43 44 45 46 47 48 49 50
000
ASUS43 KDTX 230210
RWRMI
MICHIGAN HOURLY REGIONAL WEATHER ROUNDUP
NATIONAL WEATHER SERVICE DETROIT/PONTIAC MI
900 PM EST MON JAN 22 2018

NOTE: "FAIR" INDICATES FEW OR NO CLOUDS BELOW 12,000 FEET WITH NO
SIGNIFICANT WEATHER AND/OR OBSTRUCTION TO VISIBILITY.

MIZ047>049-052>055-059>063-066>070-074>076-081>083-230300-
SOUTHEAST LOWER MICHIGAN

CITY           SKY/WX    TMP DP  RH WIND       PRES   REMARKS
ADRIAN         CLOUDY    49  45  86 SW10      29.59S
ALMA           FOG       44  44 100 S7        29.53F VSB 3/4
ANN ARBOR      CLOUDY    49  47  93 S3        29.58F
BAD AXE        LGT RAIN  44  44 100 S8        29.57F
CARO           CLOUDY    46  46 100 SE6       29.55F FOG
DETROIT CITY   CLOUDY    50  45  83 S10       29.60F
DETROIT        CLOUDY    48  45  89 S8        29.59F
FLINT          LGT RAIN  48  47  96 S8        29.56F
GROSSE ILE     CLOUDY    42  40  93 S3        29.59F
HILLSDALE      MOCLDY    46  45  93 S7        29.55F
HOWELL         CLOUDY    49  48  97 S9        29.56F

CITY           SKY/WX    TMP DP  RH WIND       PRES   REMARKS
JACKSON        CLOUDY    50  48  93 S9        29.55F
LAMBERTVILLE   MOCLDY    51  46  82 S5        29.58F
LANSING        MOCLDY    48  47  96 S9        29.55F
LAPEER         CLOUDY    47  46  99 S5        29.58F FOG
MONROE         CLOUDY    51  45  82 S9        29.58F
MT. CLEMENS    LGT RAIN  43  41  91 S7        29.61F
PONTIAC        CLOUDY    47  47 100 S6        29.57F FOG
PORT HOPE        N/A     41  39  93 SE9       29.55F
PORT HURON     CLOUDY    46  45  93 S7        29.61F
TRI CITIES     CLOUDY    47  47 100 S12       29.54F FOG
MIDLAND        CLOUDY    37  37 100 CALM      29.53F FOG
TROY           CLOUDY    49  46  90 S5        29.60F
SAGINAW HB     MOCLDY    43  43 100 S8        29.54F FOG
$$
MIZ043>046-050>051-056>058-064>065-071>073-077>080-230300-
SOUTHWEST LOWER MICHIGAN

CITY           SKY/WX    TMP DP  RH WIND       PRES   REMARKS
BATTLE CREEK   MOCLDY    49  47  93 SW9       29.54F
BENTON HARBOR  FAIR      48  45  89 SE7       29.48F
BIG RAPIDS     FOG       35  33  94 CALM      29.51F VSB 1/2
COLDWATER      MOCLDY    49  49 100 S7        29.55S
FREMONT        FOG       40  39  95 E6        29.49F VSB 1/4
HOLLAND        FAIR      45  44  97 S8        29.49F FOG
GRAND RAPIDS   MOCLDY    46  45  96 S8        29.51F FOG
IONIA          CLOUDY    44  44 100 S9        29.52S FOG
KALAMAZOO      MOCLDY    49  46  90 S6        29.53F
LUDINGTON      FOG       40  40 100 W5        29.48S VSB 3/4
MARSHALL       CLOUDY    50  49  98 SW6       29.54F
MOUNT PLEASANT FOG       37  35  96 CALM      29.52F VSB 3/4
MUSKEGON       FOG       46  44  93 SE8       29.48F VSB 1/2
SOUTH HAVEN    MOCLDY    48  46  93 SE3       29.49F
$$
MIZ016>042-230300-
NORTHERN LOWER MICHIGAN

CITY           SKY/WX    TMP DP  RH WIND       PRES   REMARKS
ALPENA         LGT RAIN  36  36 100 E9        29.57F WCI  29
BEAVER ISLAND  LGT SNOW  30  28  94 E9G18     29.60F WCI  22
BELLAIRE       LGT SNOW  35  35 100 N3        29.54F
CADILLAC       CLOUDY    35  35  99 E5        29.50S FOG     WCI  31
CHARLEVOIX     LGT SNOW  32  32 100 E6        29.58F WCI  26
FRANKFORT      CLOUDY    37  37 100 CALM      29.50F FOG
GAYLORD        FRZ RAIN  32  32 100 NE9       29.53F FOG     WCI  24
GRAYLING       LGT RAIN  33  32  96 NE5       29.54F WCI  28
HARBOR SPRINGS MIX PCPN  29  29  99 E10       29.58S WCI  20
HOUGHTON LAKE  LGT RAIN  35  34  96 NE6       29.52F WCI  30
MANISTEE       LGT RAIN  38  38 100 CALM      29.49S FOG
OSCODA         MIX PCPN  35  34  99 N3        29.54F VSB 1
PELLSTON       CLOUDY    29  28  96 E16       29.62F FOG     WCI  17
ROGERS CITY    LGT RAIN  31  31  98 E9        29.62F WCI  23
TRAVERSE CITY  LGT RAIN  36  35  96 NE6       29.50F FOG     WCI  31
$$
MIZ007>008-015-230300-
EASTERN UPPER MICHIGAN

CITY           SKY/WX    TMP DP  RH WIND       PRES   REMARKS
KINROSS        MIX PCPN  23  21  92 NE15      29.66F FOG     WCI  10
MACKINAC ISLAN CLOUDY    27  26  97 E22G35    29.62F WCI  13
NEWBERRY       LGT SNOW  23  22  97 NE12      29.66F WCI  11
S. S. MARIE    CLOUDY    24  18  77 E13G23    29.68F WCI  12
MUNISING         N/A     27  27 100 NE14      29.70F WCI  16
$$
MIZ004>006-011>014-085-230300-
CENTRAL UPPER MICHIGAN

CITY           SKY/WX    TMP DP  RH WIND       PRES   REMARKS
ESCANABA       LGT SNOW  29  26  89 NE14G20   29.61F FOG     WCI  18
MENOMINEE      FLURRIES  29  27  92 NE14      29.60S WCI  18
SAWYER-GWINN   LGT SNOW  27  25  93 NE18      29.68F VSB 1   WCI  13
$$
MIZ001>003-009>011-084-230300-
WESTERN UPPER MICHIGAN

CITY           SKY/WX    TMP DP  RH WIND       PRES   REMARKS
IRON MOUNTAIN  LGT SNOW  28  24  85 N12G22    29.61F FOG     WCI  18
HOUGHTON       LGT SNOW  23  18  81 NE14G21   29.80R WCI  11
COPPER HARBOR    N/A     24  22  91 E21G32    29.84S WCI   9
IRONWOOD       LGT SNOW  23  21  93 NE12G18   29.78F VSB 1   WCI  12
$$

ABBREVIATIONS USED IN REMARKS
   TC - TEMPERATURE IN CELSIUS
  WCI - WIND CHILL INDEX
   HX - HEAT INDEX
  VSB - VISIBILITY





USA.gov is the U.S. government's official web portal to all federal, state and local government web resources and services.